CAPE
670 733 729 666 760 721 627 646 739 790 831 932 1020 862 1017 1385 1534 1527 1512 1386 1149 877 644 489 325 203 171 38 0 7 0 154
479 592 610 529 504 442 397 433 500 549 567 602 573 598 866 1157 1253 1274 1201 1080 940 821 581 373 226 174 64 0 0 0 0 110
280 432 469 447 411 367 291 324 308 340 386 405 324 334 665 923 886 963 842 604 578 598 413 297 210 84 9 2 3 0 0 135
103 221 284 282 520 378 184 243 185 143 172 186 116 166 353 717 644 691 535 336 289 277 233 160 67 0 0 0 0 0 0 353
20 89 143 230 418 276 122 153 70 42 43 41 16 64 258 424 283 356 123 163 74 99 66 10 0 0 0 0 0 0 0 107
0 8 73 115 143 99 64 59 19 4 1 0 0 2 21 51 92 69 0 0 0 0 0 0 0 0 0 0 1 0 181 94
25 0 16 35 17 20 19 0 0 0 0 0 0 0 0 0 13 13 0 0 0 0 0 0 0 0 0 0 103 97 216 91
131 0 0 0 0 0 2 0 0 0 0 0 0 0 0 0 0 5 0 0 0 0 0 0 0 0 0 3 139 128 73 74
283 117 0 0 0 0 0 0 0 0 0 0 0 0 0 0 0 0 0 0 0 0 0 0 0 0 0 11 59 77 132 192
649 399 78 4 0 10 0 0 0 0 0 0 0 0 0 0 0 0 0 0 0 0 0 0 0 0 2 33 73 23 88 24
1120 675 373 114 35 67 45 0 0 0 0 0 0 0 0 0 0 0 0 0 0 0 0 0 3 39 3 7 30 33 47 12
1194 1079 738 349 206 166 416 111 34 4 1 0 0 0 0 2 62 0 1 0 0 0 4 1 69 94 129 40 0 0 0 0
1061 1224 1040 828 555 440 677 446 109 149 43 74 6 16 13 8 187 79 20 62 5 9 39 90 16 0 0 0 0 0 0 0
887 1156 1171 1189 1131 805 609 851 473 270 227 153 267 179 88 67 104 327 256 316 193 70 33 24 12 0 4 0 57 11 0 0
638 868 1174 1281 1264 1108 478 251 150 312 111 228 240 508 297 178 112 364 390 349 229 71 10 33 32 0 0 34 6 109 0 0
377 547 820 1239 1029 990 1049 1000 727 587 541 290 210 508 578 358 244 293 386 302 128 55 1 5 6 18 0 0 0 0 0 0
0 77 434 887 930 1035 980 1038 896 529 433 341 167 237 568 492 318 346 420 202 84 54 22 12 0 0 0 0 1 0 0 0
0 0 25 55 693 764 901 994 522 507 409 456 113 178 191 269 291 312 371 258 74 68 48 11 4 0 0 1 0 0 0 0
0 0 0 0 0 276 629 889 429 653 419 569 217 141 55 1 0 3 10 106 71 53 67 79 11 0 0 0 0 0 0 0
7 22 126 70 0 0 77 281 416 394 237 100 114 119 108 0 0 0 1 29 30 27 20 16 22 1 0 0 0 0 0 0
CIN
-447 -406 -400 -389 -332 -316 -335 -327 -275 -227 -215 -188 -154 -179 -143 -105 -91 -76 -82 -105 -146 -170 -187 -194 -221 -250 -266 -351 0 -477 0 -277
-530 -439 -401 -411 -402 -393 -375 -354 -321 -291 -264 -253 -242 -221 -157 -115 -122 -121 -125 -142 -178 -202 -226 -247 -261 -262 -327 0 0 0 0 -318
-629 -548 -485 -450 -458 -443 -422 -371 -348 -329 -314 -296 -311 -304 -203 -136 -154 -168 -187 -225 -246 -251 -294 -300 -283 -346 -469 -392 -271 0 0 -251
-782 -639 -594 -553 -437 -461 -489 -410 -398 -403 -385 -377 -429 -393 -290 -180 -187 -189 -237 -295 -315 -310 -347 -357 -411 0 0 0 0 0 0 -264
-958 -778 -656 -575 -472 -504 -549 -492 -510 -506 -487 -474 -502 -457 -325 -254 -297 -277 -374 -378 -411 -374 -423 -548 -92 0 0 0 0 0 0 -330
0 -902 -761 -651 -569 -581 -606 -620 -595 -299 -157 0 0 -221 -467 -445 -401 -399 0 0 0 0 0 0 0 0 0 0 -21 0 -279 -326
-940 0 -955 -772 -765 -681 -655 0 0 0 0 0 0 0 0 0 -483 -483 0 0 0 0 0 0 0 0 0 0 -314 -306 -247 -326
-806 0 0 0 -56 0 -269 0 0 0 0 0 0 0 0 0 -49 -514 0 0 0 0 0 0 0 0 0 -81 -264 -247 -313 -324
-751 -809 0 0 0 0 0 0 0 0 0 0 0 0 0 0 0 0 0 0 0 0 0 0 0 0 0 -375 -337 -317 -308 -298
-622 -623 -783 -289 0 -516 0 0 0 0 0 0 0 0 0 0 0 0 0 0 0 0 0 0 0 0 -372 -415 -370 -392 -300 -413
-513 -580 -647 -717 -707 -681 -667 0 0 0 0 0 0 0 0 0 0 -114 0 0 0 0 0 0 -174 -395 -381 -388 -377 -363 -319 -283
-491 -524 -562 -608 -607 -602 -483 -568 -673 -486 -482 0 0 0 0 -490 -360 0 -372 0 0 0 -367 -57 -324 -287 -283 -301 0 0 0 0
-503 -497 -507 -464 -471 -463 -412 -484 -569 -518 -575 -493 -493 -392 -435 -519 -277 -327 -404 -347 -436 -379 -314 -271 -399 0 0 0 0 0 0 0
-514 -503 -501 -458 -414 -421 -392 -316 -404 -436 -443 -455 -384 -334 -292 -315 -313 -227 -207 -196 -223 -260 -278 -343 -389 0 -231 0 -212 -71 0 0
-580 -534 -521 -457 -399 -344 -461 -437 -486 -320 -454 -364 -366 -247 -250 -224 -257 -179 -190 -168 -195 -286 -389 -228 -267 0 0 -67 -139 -174 0 0
-623 -592 -576 -441 -438 -397 -331 -295 -266 -274 -229 -284 -322 -200 -168 -185 -193 -186 -165 -216 -281 -293 -41 -247 -75 -285 0 0 0 0 0 0
0 -849 -640 -466 -439 -381 -338 -284 -282 -344 -297 -285 -325 -250 -123 -137 -166 -163 -139 -223 -306 -354 -343 -313 0 0 0 0 0 0 0 0
0 0 -545 -809 -451 -423 -356 -295 -417 -350 -334 -251 -402 -293 -245 -157 -155 -171 -159 -181 -267 -304 -296 -290 -158 0 0 0 0 0 0 0
0 0 0 0 -21 -522 -412 -306 -418 -306 -332 -217 -321 -316 -281 -1 0 -44 -245 -219 -258 -272 -202 -165 -190 0 0 0 0 0 0 0
-1036 -916 -764 -793 0 0 -601 -456 -388 -367 -396 -408 -362 -320 -264 -1 0 0 -27 -270 -275 -267 -238 -245 -216 -10 0 0 0 0 0 0
Wind_Speed
9 10 13 15 15 14 14 15 15 13 13 12 12 11 10 12 13 11 12 11 12 10 8 5 4 3 1 1 4 4 3 4
13 12 9 10 10 13 14 13 14 14 12 12 12 11 11 10 11 12 11 11 11 11 8 5 2 2 4 5 2 2 1 5
11 14 14 12 9 11 14 14 13 13 12 12 10 5 6 8 6 10 11 10 10 10 9 6 3 6 7 7 7 2 2 2
12 11 13 14 9 10 9 9 7 7 7 8 6 6 5 6 6 9 10 9 9 8 8 7 4 2 3 5 2 3 3 3
12 11 10 12 10 9 6 5 5 5 8 8 6 5 5 4 3 3 3 7 4 5 5 4 5 3 4 4 3 2 2 2
15 13 12 11 7 8 9 8 7 6 7 9 7 5 5 4 4 4 4 3 5 4 3 3 5 5 5 5 5 1 2 2
17 16 15 13 10 8 8 9 9 9 8 9 8 7 8 6 5 5 5 4 4 4 4 4 5 5 5 5 5 3 4 2
17 17 16 15 12 12 10 9 9 9 9 9 11 8 7 8 8 7 6 6 5 5 5 5 5 5 5 5 6 5 5 4
20 20 18 17 15 12 10 9 9 10 10 12 13 10 9 10 8 8 8 7 7 5 5 4 4 3 5 5 5 6 5 6
19 16 18 17 17 13 10 10 10 10 10 10 14 13 12 9 8 8 8 7 7 6 5 4 5 5 5 6 5 5 5 5
18 19 19 20 16 11 12 11 10 9 9 10 14 14 12 10 8 8 8 7 7 8 5 5 5 5 7 4 4 4 4 2
20 18 19 19 12 10 7 8 9 9 10 10 14 12 14 12 8 9 9 8 8 8 8 6 4 7 5 1 2 1 2 3
19 19 19 14 12 12 10 12 11 9 10 14 14 14 15 13 9 8 10 10 11 12 9 9 4 4 4 2 0 1 1 0
17 19 17 16 13 13 10 10 7 10 9 11 14 15 15 13 13 10 12 8 10 12 11 4 4 5 4 2 1 2 2 3
16 18 19 18 15 9 3 4 3 4 6 9 11 15 16 16 14 12 10 9 10 9 10 7 5 3 4 5 3 5 0 1
13 15 16 15 14 12 15 11 11 11 9 9 10 13 14 15 14 12 11 8 8 8 7 6 5 5 1 2 3 4 4 2
9 9 11 10 14 14 13 11 9 3 3 7 8 9 12 14 14 13 12 9 8 9 8 7 4 4 4 3 1 1 1 2
9 10 8 8 11 11 15 14 8 6 5 7 5 6 6 9 12 12 11 10 10 9 8 8 10 5 5 5 5 4 4 3
8 9 7 8 8 9 11 12 11 13 11 9 8 6 5 8 9 8 7 8 7 7 9 9 8 8 10 7 3 4 4 3
9 9 7 7 8 8 7 9 8 8 9 7 7 7 7 8 9 9 9 7 5 5 3 4 5 4 6 6 4 4 4 4
Wind_Direction
152 159 158 155 155 158 160 157 155 156 156 152 151 154 153 154 152 151 148 151 154 156 161 161 152 138 170 316 39 8 34 152
157 161 161 160 165 162 164 164 158 159 159 158 153 158 159 164 157 155 160 160 161 162 166 185 209 270 302 309 132 170 167 169
166 166 167 170 167 172 166 168 161 160 163 160 152 156 162 167 174 165 163 165 173 168 165 174 252 298 313 320 352 328 301 154
174 174 170 168 171 169 165 168 167 166 165 164 157 162 160 165 173 175 167 172 177 175 174 178 197 283 299 311 313 327 311 162
180 175 175 172 174 169 166 167 162 168 167 166 160 162 165 166 164 176 173 176 169 175 190 192 202 217 265 288 308 338 306 160
179 177 174 181 166 177 172 169 169 173 181 173 164 165 175 172 173 170 169 183 174 182 207 218 227 231 240 274 302 278 299 130
184 177 179 180 168 180 181 182 177 176 177 183 174 176 180 170 175 175 179 168 184 197 195 211 233 238 243 234 264 167 193 179
181 185 182 179 181 182 184 183 179 175 179 186 186 184 181 185 178 184 186 185 190 190 193 196 225 213 239 233 215 192 153 173
185 184 180 184 188 184 184 187 180 184 185 185 189 187 185 187 184 188 191 190 184 190 204 210 228 236 235 226 219 207 184 171
184 182 183 186 192 187 186 188 187 188 188 187 191 193 189 185 191 194 189 184 183 193 187 198 216 207 219 225 218 206 207 188
181 182 184 189 193 185 191 188 193 192 188 188 193 195 192 193 194 196 185 189 185 191 193 181 200 217 223 222 240 220 218 190
181 181 184 188 187 185 185 192 196 194 194 193 189 196 197 197 197 185 189 189 199 197 197 190 187 206 206 158 38 351 214 218
183 179 186 175 183 187 188 194 197 198 198 193 188 194 198 200 200 186 187 197 198 198 196 190 199 145 108 58 57 308 238 148
187 187 179 183 186 191 199 192 199 204 202 195 191 193 197 197 200 197 200 193 197 197 186 153 173 163 144 114 213 293 245 226
192 183 183 186 183 174 106 97 105 159 198 201 195 195 197 200 199 197 198 198 202 197 185 183 168 176 176 145 150 223 165 205
187 179 178 183 171 174 186 195 196 209 193 200 196 194 196 198 195 197 196 198 190 186 185 176 154 168 138 95 61 139 177 277
153 159 167 171 179 185 190 203 209 157 167 178 191 193 199 195 192 190 197 192 188 175 179 178 186 167 174 147 185 102 27 147
128 140 162 168 181 188 194 201 181 163 178 195 189 193 188 200 194 193 200 189 182 188 176 184 194 180 175 172 171 164 181 166
135 149 157 178 181 191 197 201 183 189 186 196 186 179 185 192 177 184 178 177 164 167 188 197 190 190 177 182 174 160 139 146
136 142 146 158 172 192 190 185 193 193 183 180 188 187 186 178 186 180 174 152 151 166 178 153 170 167 167 177 171 184 153 167